Location: Newark
(30.0333°N, 31.2167°E)
Time: 15:02:48
(UTC+00:00)

Tiros 1 despin weight - Pass Details

Date: 24 January 2020
Orbit: 594 x 642 km, 48.2° (Epoch: 24 February)

Event Time Altitude Azimuth Distance (km) Brightness Sun altitude
Rises 14:32:38 0° 323° (NW) 2,918 ? 9.4°
Reaches altitude 10° 14:35:34 10° 341° (NNW) 2,017 ? 8.8°
Maximum altitude 14:38:52 19° 26° (NNE) 1,524 ? 8.2°
Drops below altitude 10° 14:42:10 10° 72° (ENE) 2,025 ? 7.5°
Sets 14:45:07 0° 90° (E) 2,935 ? 7.0°
